• In Austria
  • List of Countries
  • For 7 days
  • Water Temperature
  • Satellite Maps
  • Weather Map
  • News
  • Weather Widgets
  • user-avatar
    Login

    Hourly Weather Salta

    Today, 20 October, Friday

    Time Temperature Precipitation Wind Pressure Humidity
    00:00 +18°C° 0 mm 1 mps 650 mmHg 42%
    01:00 +18°C° 0 mm 1 mps 649 mmHg 42%
    02:00 +16°C° 0 mm 1 mps 649 mmHg 43%
    03:00 +16°C° 0 mm 1 mps 648 mmHg 43%
    04:00 +16°C° 0 mm 1 mps 648 mmHg 42%
    05:00 +16°C° 0 mm 1 mps 648 mmHg 42%
    06:00 +19°C° 0 mm 1 mps 648 mmHg 38%
    07:00 +21°C° 0 mm 1 mps 649 mmHg 34%
    08:00 +23°C° 0 mm 1 mps 650 mmHg 30%
    09:00 +25°C° 0 mm 2 mps 650 mmHg 28%
    10:00 +27°C° 0 mm 2 mps 650 mmHg 26%
    11:00 +29°C° 0 mm 3 mps 650 mmHg 24%
    12:00 +30°C° 0 mm 3 mps 649 mmHg 23%
    13:00 +31°C° 0 mm 3 mps 649 mmHg 22%
    14:00 +33°C° 0 mm 3 mps 648 mmHg 21%
    15:00 +31°C° 0 mm 3 mps 648 mmHg 23%
    16:00 +31°C° 0 mm 3 mps 648 mmHg 25%
    17:00 +30°C° 0 mm 3 mps 647 mmHg 28%
    18:00 +28°C° 0 mm 3 mps 647 mmHg 36%
    19:00 +25°C° 0 mm 2 mps 647 mmHg 45%
    20:00 +23°C° 0 mm 1 mps 647 mmHg 54%
    21:00 +23°C° 0 mm 1 mps 647 mmHg 56%
    22:00 +22°C° 0 mm 1 mps 648 mmHg 59%
    23:00 +22°C° 0 mm 1 mps 648 mmHg 61%

    Tomorrow, 21 October, Saturday

    Time Temperature Precipitation Wind Pressure Humidity
    00:00 +22°C° 0 mm 1 mps 648 mmHg 60%
    01:00 +21°C° 0 mm 1 mps 648 mmHg 58%
    02:00 +21°C° 0 mm 1 mps 648 mmHg 57%
    03:00 +21°C° 0 mm 1 mps 648 mmHg 57%
    04:00 +21°C° 0 mm 1 mps 649 mmHg 56%
    05:00 +20°C° 0 mm 1 mps 649 mmHg 55%
    06:00 +21°C° 0 mm 2 mps 650 mmHg 55%
    07:00 +23°C° 0 mm 2 mps 652 mmHg 54%
    08:00 +25°C° 0 mm 3 mps 653 mmHg 53%
    09:00 +25°C° 0.3 mm 3 mps 653 mmHg 54%
    10:00 +26°C° 0.3 mm 3 mps 653 mmHg 55%
    11:00 +26°C° 0.3 mm 3 mps 654 mmHg 55%
    12:00 +26°C° 0.4 mm 4 mps 653 mmHg 58%
    13:00 +25°C° 0.4 mm 4 mps 653 mmHg 60%
    14:00 +25°C° 0.4 mm 4 mps 652 mmHg 62%
    15:00 +23°C° 0.4 mm 4 mps 652 mmHg 67%
    16:00 +21°C° 0.4 mm 4 mps 651 mmHg 71%
    17:00 +20°C° 0.4 mm 3 mps 651 mmHg 76%
    18:00 +20°C° 0.2 mm 3 mps 652 mmHg 79%
    19:00 +19°C° 0.2 mm 3 mps 653 mmHg 81%
    20:00 +18°C° 0.2 mm 2 mps 653 mmHg 84%
    21:00 +18°C° 0.2 mm 2 mps 654 mmHg 84%
    22:00 +18°C° 0.2 mm 2 mps 654 mmHg 84%
    23:00 +17°C° 0.2 mm 2 mps 655 mmHg 85%

    Day after tomorrow, 22 October, Sunday

    Time Temperature Precipitation Wind Pressure Humidity
    00:00 +17°C° 0.4 mm 2 mps 655 mmHg 85%
    01:00 +17°C° 0.4 mm 2 mps 655 mmHg 85%
    02:00 +17°C° 0.4 mm 2 mps 654 mmHg 85%
    03:00 +17°C° 0.4 mm 2 mps 654 mmHg 86%
    04:00 +16°C° 0.4 mm 2 mps 655 mmHg 86%
    05:00 +16°C° 0.4 mm 2 mps 655 mmHg 87%
    06:00 +16°C° 0.2 mm 2 mps 655 mmHg 86%
    07:00 +16°C° 0.2 mm 2 mps 655 mmHg 86%
    08:00 +16°C° 0.2 mm 2 mps 656 mmHg 85%
    09:00 +16°C° 0.2 mm 2 mps 656 mmHg 83%
    10:00 +16°C° 0.2 mm 2 mps 656 mmHg 81%
    11:00 +16°C° 0.2 mm 2 mps 656 mmHg 78%
    12:00 +17°C° 0.1 mm 2 mps 655 mmHg 77%
    13:00 +17°C° 0.1 mm 2 mps 654 mmHg 75%
    14:00 +17°C° 0.1 mm 2 mps 653 mmHg 73%
    15:00 +17°C° 0 mm 2 mps 652 mmHg 73%
    16:00 +17°C° 0 mm 2 mps 651 mmHg 73%
    17:00 +18°C° 0 mm 2 mps 651 mmHg 73%
    18:00 +17°C° 0 mm 2 mps 651 mmHg 76%
    19:00 +16°C° 0 mm 1 mps 651 mmHg 79%
    20:00 +16°C° 0 mm 1 mps 652 mmHg 82%
    21:00 +16°C° 0 mm 1 mps 652 mmHg 82%
    22:00 +15°C° 0 mm 1 mps 652 mmHg 83%
    23:00 +15°C° 0 mm 1 mps 652 mmHg 84%

    23 October, Monday

    Time Temperature Precipitation Wind Pressure Humidity
    00:00 +15°C° 0 mm 1 mps 651 mmHg 83%
    01:00 +15°C° 0 mm 1 mps 651 mmHg 81%
    02:00 +15°C° 0 mm 1 mps 650 mmHg 80%
    03:00 +15°C° 0 mm 1 mps 650 mmHg 78%
    04:00 +14°C° 0 mm 1 mps 650 mmHg 75%
    05:00 +14°C° 0 mm 1 mps 650 mmHg 72%
    06:00 +16°C° 0 mm 1 mps 651 mmHg 67%
    07:00 +18°C° 0 mm 1 mps 651 mmHg 61%
    08:00 +19°C° 0 mm 1 mps 652 mmHg 56%
    09:00 +20°C° 0 mm 2 mps 652 mmHg 51%
    10:00 +23°C° 0 mm 2 mps 652 mmHg 47%
    11:00 +24°C° 0 mm 2 mps 652 mmHg 42%
    12:00 +26°C° 0 mm 3 mps 652 mmHg 40%
    13:00 +27°C° 0 mm 3 mps 651 mmHg 37%
    14:00 +28°C° 0 mm 3 mps 651 mmHg 35%
    15:00 +27°C° 0 mm 3 mps 650 mmHg 37%
    16:00 +27°C° 0 mm 3 mps 650 mmHg 39%
    17:00 +26°C° 0 mm 3 mps 649 mmHg 41%
    18:00 +24°C° 0 mm 3 mps 649 mmHg 50%
    19:00 +21°C° 0 mm 2 mps 650 mmHg 58%
    20:00 +20°C° 0 mm 1 mps 650 mmHg 67%
    21:00 +20°C° 0 mm 1 mps 650 mmHg 69%
    22:00 +19°C° 0 mm 1 mps 650 mmHg 70%
    23:00 +19°C° 0 mm 1 mps 650 mmHg 72%

    24 October, Tuesday

    Time Temperature Precipitation Wind Pressure Humidity
    00:00 +18°C° 0 mm 1 mps 650 mmHg 72%
    01:00 +18°C° 0 mm 1 mps 649 mmHg 71%
    02:00 +18°C° 0 mm 1 mps 649 mmHg 71%
    03:00 +18°C° 0 mm 1 mps 649 mmHg 68%
    04:00 +16°C° 0 mm 1 mps 649 mmHg 65%
    05:00 +16°C° 0 mm 1 mps 649 mmHg 62%
    06:00 +19°C° 0 mm 1 mps 650 mmHg 56%
    07:00 +21°C° 0 mm 1 mps 651 mmHg 49%
    08:00 +23°C° 0 mm 1 mps 652 mmHg 43%
    09:00 +24°C° 0 mm 2 mps 653 mmHg 39%
    10:00 +26°C° 0 mm 2 mps 653 mmHg 35%
    11:00 +28°C° 0 mm 3 mps 653 mmHg 31%
    12:00 +28°C° 0 mm 3 mps 652 mmHg 31%
    13:00 +29°C° 0 mm 3 mps 652 mmHg 31%
    14:00 +30°C° 0 mm 3 mps 651 mmHg 31%
    15:00 +29°C° 0 mm 4 mps 651 mmHg 34%
    16:00 +28°C° 0 mm 4 mps 651 mmHg 36%
    17:00 +28°C° 0 mm 4 mps 650 mmHg 39%
    18:00 +26°C° 0.1 mm 3 mps 650 mmHg 45%
    19:00 +24°C° 0.1 mm 2 mps 651 mmHg 52%
    20:00 +22°C° 0.1 mm 1 mps 651 mmHg 59%
    21:00 +21°C° 0 mm 1 mps 651 mmHg 60%
    22:00 +21°C° 0 mm 1 mps 651 mmHg 61%
    23:00 +20°C° 0 mm 1 mps 651 mmHg 63%

    25 October, Wednesday

    Time Temperature Precipitation Wind Pressure Humidity
    00:00 +20°C° 0 mm 1 mps 651 mmHg 63%
    01:00 +20°C° 0 mm 1 mps 650 mmHg 63%
    02:00 +20°C° 0 mm 1 mps 650 mmHg 63%
    03:00 +20°C° 0 mm 1 mps 650 mmHg 65%
    04:00 +19°C° 0 mm 1 mps 650 mmHg 66%
    05:00 +19°C° 0 mm 1 mps 650 mmHg 68%
    06:00 +20°C° 0 mm 1 mps 650 mmHg 63%
    07:00 +22°C° 0 mm 1 mps 651 mmHg 59%
    08:00 +23°C° 0 mm 2 mps 651 mmHg 55%
    09:00 +25°C° 0 mm 2 mps 651 mmHg 50%
    10:00 +27°C° 0 mm 3 mps 651 mmHg 46%
    11:00 +28°C° 0 mm 3 mps 651 mmHg 42%
    12:00 +29°C° 0.1 mm 3 mps 650 mmHg 43%
    13:00 +29°C° 0.1 mm 3 mps 649 mmHg 44%
    14:00 +29°C° 0.1 mm 3 mps 649 mmHg 45%
    15:00 +28°C° 0.3 mm 3 mps 648 mmHg 47%
    16:00 +28°C° 0.3 mm 3 mps 648 mmHg 49%
    17:00 +27°C° 0.3 mm 3 mps 648 mmHg 51%
    18:00 +26°C° 0.1 mm 2 mps 648 mmHg 57%
    19:00 +25°C° 0.1 mm 2 mps 649 mmHg 63%
    20:00 +24°C° 0.1 mm 1 mps 649 mmHg 69%
    21:00 +23°C° 0 mm 1 mps 649 mmHg 71%
    22:00 +22°C° 0 mm 1 mps 649 mmHg 74%
    23:00 +21°C° 0 mm 1 mps 649 mmHg 76%
    Show more